Alexandria, MN

6:41 PM CST on December 05, 2019 (GMT -0600)
Chandler

Weather History for KAXN - October, 2019

Change the Weather History Date:

Wednesday, October 2, 2019

  Actual Average Record
Temperature  
Mean Temperature 44 °F -  
Max Temperature 46 °F 62 °F 90 °F (1953)
Min Temperature 42 °F 40 °F 24 °F (1974)
Degree Days  
Heating Degree Days 21    
Moisture  
Dew Point 40 °F    
Average Humidity 85    
Maximum Humidity 97    
Minimum Humidity 74    
Precipitation  
Precipitation 0.34 in - - ()
Sea Level Pressure  
Sea Level Pressure 30.12 in    
Wind  
Wind Speed 10 mph ()    
Max Wind Speed 17 mph    
Max Gust Speed 24 mph    
Visibility 8.4 miles    
Events Rain , Thunderstorm    
Averages and records for this station are not official NWS values.
T = Trace of Precipitation, MM = Missing Value Source: Averaged Metar Reports

Daily Weather History Graph

Daily Weather History Graph

Search for Another Location

Airport or City:

Astronomy

Oct. 02, 2019 Rise Set
Actual Time 7:20 AM CDT 7:00 PM CDT
Civil Twilight 6:51 AM CDT 7:29 PM CDT
Nautical Twilight 6:16 AM CDT 8:04 PM CDT
Astronomical Twilight 5:41 AM CDT 8:39 PM CDT
Moon 12:00 PM CDT (10/2) 9:40 PM CDT (10/2)
Length of Visible Light 12h 38m
Length of Day
11h 39m
Waxing Crescent, 20% of the Moon is Illuminated
Oct 2
Waxing Crescent
Oct 5
First Quarter
Oct 13
Full
Oct 21
Last Quarter
Oct 27
New

Hourly Weather History & Observations

Time (CDT) Temp. Windchill Dew Point Humidity Pressure Visibility Wind Dir Wind Speed Gust Speed Precip Events Conditions
12:53 AM 44.1 °F 37.4 °F 37.0 °F 76% 30.15 in 10.0 mi NE 13.8 mph 23.0 mph N/A   Overcast
1:42 AM 43.0 °F 35.7 °F 37.0 °F 80% 30.12 in 10.0 mi NE 15.0 mph 24.2 mph N/A   Overcast
1:53 AM 43.0 °F 37.2 °F 37.0 °F 80% 30.16 in 10.0 mi ENE 10.4 mph - N/A   Overcast
2:53 AM 42.1 °F 35.2 °F 37.0 °F 82% 30.17 in 10.0 mi ENE 12.7 mph - N/A   Overcast
3:27 AM 42.1 °F 34.9 °F 36.0 °F 79% 30.14 in 10.0 mi NE 13.8 mph - N/A   Overcast
3:53 AM 42.1 °F 35.2 °F 36.0 °F 79% 30.17 in 10.0 mi NE 12.7 mph - N/A   Overcast
4:53 AM 42.1 °F 36.1 °F 37.0 °F 82% 30.20 in 10.0 mi NNE 10.4 mph - N/A   Overcast
5:05 AM 43.0 °F 37.7 °F 37.0 °F 80% 30.17 in 10.0 mi NNE 9.2 mph - N/A   Overcast
5:53 AM 43.0 °F 36.0 °F 37.0 °F 80% 30.18 in 10.0 mi NE 13.8 mph - N/A   Overcast
6:20 AM 43.0 °F 37.2 °F 37.0 °F 80% 30.16 in 10.0 mi NNE 10.4 mph 19.6 mph N/A   Overcast
6:53 AM 43.0 °F 36.8 °F 37.0 °F 80% 30.18 in 10.0 mi NE 11.5 mph - N/A   Overcast
7:53 AM 43.0 °F 38.8 °F 37.9 °F 82% 30.18 in 10.0 mi NE 6.9 mph 16.1 mph N/A   Overcast
8:53 AM 44.1 °F 38.1 °F 37.9 °F 79% 30.18 in 10.0 mi NE 11.5 mph - N/A   Overcast
9:53 AM 45.0 °F 37.6 °F 37.9 °F 76% 30.15 in 10.0 mi NE 17.3 mph 23.0 mph N/A   Overcast
10:53 AM 45.0 °F 41.2 °F 39.0 °F 80% 30.20 in 10.0 mi ENE 6.9 mph - N/A   Overcast
11:53 AM 46.0 °F 40.6 °F 39.0 °F 76% 30.18 in 10.0 mi ENE 11.5 mph - N/A   Overcast
12:53 PM 46.0 °F 41.0 °F 39.9 °F 79% 30.17 in 10.0 mi NE 10.4 mph - N/A   Overcast
1:53 PM 46.9 °F - 39.0 °F 74% 30.14 in 10.0 mi NE 13.8 mph 24.2 mph N/A   Overcast
2:53 PM 46.0 °F 39.9 °F 39.9 °F 79% 30.12 in 10.0 mi ENE 13.8 mph 24.2 mph N/A   Overcast
3:53 PM 46.9 °F - 39.9 °F 77% 30.09 in 10.0 mi ENE 13.8 mph - N/A   Overcast
4:39 PM 46.0 °F 41.9 °F 39.9 °F 79% 30.07 in 10.0 mi NE 8.1 mph - N/A   Overcast
4:53 PM 46.0 °F 41.0 °F 39.9 °F 79% 30.10 in 10.0 mi NE 10.4 mph - N/A   Overcast
5:11 PM 46.0 °F 41.4 °F 39.9 °F 79% 30.08 in 10.0 mi ENE 9.2 mph - N/A   Overcast
5:53 PM 45.0 °F 41.2 °F 42.1 °F 90% 30.10 in 5.0 mi NE 6.9 mph - 0.05 in Rain Light Rain
6:53 PM 44.1 °F 40.1 °F 42.1 °F 93% 30.10 in 10.0 mi NNE 6.9 mph - 0.07 in   Overcast
7:08 PM 44.1 °F 39.0 °F 42.1 °F 93% 30.06 in 9.0 mi NNE 9.2 mph - 0.01 in Rain Light Rain
7:24 PM 44.1 °F 39.0 °F 42.1 °F 93% 30.05 in 10.0 mi NE 9.2 mph - 0.01 in   Overcast
7:53 PM 44.1 °F 38.1 °F 42.1 °F 93% 30.11 in 2.5 mi NE 11.5 mph - 0.04 in Rain Rain
8:07 PM 43.0 °F 38.8 °F 42.1 °F 97% 30.08 in 3.0 mi NNE 6.9 mph - 0.06 in Rain , Thunderstorm Thunderstorms and Rain
8:18 PM 43.0 °F 38.2 °F 42.1 °F 97% 30.07 in 6.0 mi NE 8.1 mph - 0.07 in Rain , Thunderstorm Light Rain
8:39 PM 43.0 °F 37.2 °F 41.0 °F 93% 30.07 in 6.0 mi NE 10.4 mph - 0.10 in Rain Light Rain
8:53 PM 43.0 °F 37.7 °F 41.0 °F 93% 30.12 in 6.0 mi NNE 9.2 mph - 0.12 in Rain Rain
9:53 PM 43.0 °F 37.7 °F 42.1 °F 97% 30.12 in 4.0 mi North 9.2 mph - 0.03 in Rain Rain
10:07 PM 43.0 °F 37.7 °F 41.0 °F 93% 30.07 in 6.0 mi NNE 9.2 mph - 0.01 in Rain Light Rain
10:20 PM 43.0 °F 37.2 °F 41.0 °F 93% 30.07 in 6.0 mi NNE 10.4 mph - 0.02 in Rain Light Rain
10:30 PM 43.0 °F 37.7 °F 41.0 °F 93% 30.06 in 6.0 mi NE 9.2 mph - 0.03 in Rain Light Rain
10:53 PM 43.0 °F 38.2 °F 41.0 °F 93% 30.09 in 10.0 mi NE 8.1 mph - 0.03 in   Overcast
11:32 PM 43.0 °F 38.2 °F 41.0 °F 93% 30.06 in 10.0 mi NNE 8.1 mph - N/A   Overcast
11:42 PM 43.0 °F 38.2 °F 41.0 °F 93% 30.05 in 4.0 mi NNE 8.1 mph - N/A   Overcast
11:53 PM 43.0 °F 38.2 °F 41.0 °F 93% 30.09 in 3.0 mi NE 8.1 mph - N/A   Overcast